This demonstration page uses our WeatherBlox Daily Observations layout. Learn more.

Left ArrowRight Arrow

Hourly Observations for January 22, 2015

Temp ( °F °C ) Dew Point ( °F °C ) Humidity (%) Winds ( mph kmh ) Pressure ( in mb ) Visibility ( mi km ) Precip ( " mm )
12:53 am 00:53 Clear 35 1.7 27 -2.8 72 72 ENE 3 6 30.20 1023 10 16 0.00 0.00
1:53 am 01:53 Clear 35 1.7 27 -2.8 72 72 Calm 30.21 1023 10 16 0.00 0.00
2:53 am 02:53 Clear 35 1.7 28 -2.2 76 76 Calm 30.22 1023 10 16 0.00 0.00
3:53 am 03:53 Clear 34 1.1 29 -1.7 82 82 Calm 30.24 1024 10 16 0.00 0.00
4:53 am 04:53 Clear 35 1.7 29 -1.7 78 78 Calm 30.24 1024 10 16 0.00 0.00
5:53 am 05:53 Clear 34 1.1 30 -1.1 85 85 Calm 30.26 1025 10 16 0.00 0.00
6:53 am 06:53 Clear 35 1.7 29 -1.7 78 78 Calm 30.28 1026 10 16 0.00 0.00
7:53 am 07:53 Sunny 34 1.1 29 -1.7 82 82 ENE 3 6 30.28 1026 10 16 0.00 0.00
8:53 am 08:53 Mostly Cloudy 40 4.4 31 -0.6 70 70 Calm 30.30 1026 10 16 0.00 0.00
9:53 am 09:53 Cloudy 45 7.2 32 0 61 61 NE 3 6 30.30 1026 10 16 0.00 0.00
10:53 am 10:53 Mostly Sunny 49 9.4 32 0 52 52 Calm 30.30 1026 10 16 0.00 0.00
11:53 am 11:53 Mostly Cloudy 51 10.6 29 -1.7 43 43 Calm 30.31 1026 10 16 0.00 0.00
12:53 pm 12:53 Cloudy 53 11.7 28 -2.2 38 38 Calm 30.28 1025 10 16 0.00 0.00
1:53 pm 13:53 Cloudy 53 11.7 29 -1.7 40 40 W 3 6 30.27 1025 10 16 0.00 0.00
2:53 pm 14:53 Cloudy 54 12.2 26 -3.3 34 34 NNW 6 9 30.26 1025 10 16 0.00 0.00
3:53 pm 15:53 Cloudy 55 12.8 26 -3.3 33 33 ENE 6 9 30.26 1025 10 16 0.00 0.00
4:53 pm 16:53 Mostly Sunny 54 12.2 27 -2.8 35 35 NNE 5 7 30.25 1024 10 16 0.00 0.00
5:53 pm 17:53 Cloudy 53 11.7 28 -2.2 38 38 Calm 30.25 1025 10 16 0.00 0.00
6:53 pm 18:53 Cloudy 51 10.6 29 -1.7 43 43 N 5 7 30.28 1025 10 16 0.00 0.00
7:53 pm 19:53 Cloudy 50 10 32 0 50 50 N 5 7 30.28 1025 10 16 0.00 0.03
8:53 pm 20:53 Cloudy 48 8.9 34 1.1 58 58 NNW 3 6 30.27 1025 10 16 0.00 0.03
9:53 pm 21:53 Cloudy 47 8.3 36 2.2 66 66 NNW 5 7 30.27 1025 10 16 0.00 0.03
10:53 pm 22:53 Cloudy with Light Rain 46 7.8 37 2.8 71 71 Calm 30.29 1026 10 16 0.01 0.25
11:53 pm 23:53 Cloudy with Light Rain 44 6.7 40 4.4 85 85 Calm 30.27 1025 8 13 0.03 0.76

Powered by AerisWeather